Location: La Tine
(46.4708°N, 7.0525°E)
Time: 02:39:26
(UTC+00:00)

USA 234 - Pass Details

Date: 18 September 2020
Orbit: 1102 x 1106 km, 123.0° (Epoch: 16 October)

Event Time Altitude Azimuth Distance (km) Brightness Sun altitude
Rises 22:00:10 0° 58° (ENE) 3,925 6.2 -38.6°
Reaches altitude 10° 22:02:47 10° 52° (NE) 2,966 5.6 -38.8°
Enters shadow 22:03:22 13° 50° (NE) 2,762 5.4 -38.8°
Exits shadow 22:06:55 34° 22° (NNE) 1,729 4.4 -39.1°
Maximum altitude 22:08:50 42° 344° (NNW) 1,525 4.2 -39.2°
Drops below altitude 10° 22:14:54 10° 276° (W) 2,964 5.8 -39.7°
Sets 22:17:30 0° 270° (W) 3,921 6.4 -39.8°
